Year,Month,Day,Hour,Minute,Value (Times are PST for temperature in C)
2009,07,22,00,00,14.20
2009,07,22,00,01,14.20
2009,07,22,00,02,14.20
2009,07,22,00,03,14.10
2009,07,22,00,04,14.10
2009,07,22,00,05,14.10
2009,07,22,00,06,14.10
2009,07,22,00,07,14.10
2009,07,22,00,08,14.00
2009,07,22,00,09,14.00
2009,07,22,00,10,14.00
2009,07,22,00,11,13.90
2009,07,22,00,12,13.90
2009,07,22,00,13,13.90
2009,07,22,00,14,13.90
2009,07,22,00,15,13.90
2009,07,22,00,16,13.90
2009,07,22,00,17,13.80
2009,07,22,00,18,13.80
2009,07,22,00,19,13.80
2009,07,22,00,20,13.80
2009,07,22,00,21,13.90
2009,07,22,00,22,13.90
2009,07,22,00,23,13.90
2009,07,22,00,24,13.90
2009,07,22,00,25,13.90
2009,07,22,00,26,13.90
2009,07,22,00,27,13.90
2009,07,22,00,28,13.90
2009,07,22,00,29,13.80
2009,07,22,00,30,13.80
2009,07,22,00,31,13.80
2009,07,22,00,32,13.80
2009,07,22,00,33,13.80
2009,07,22,00,34,13.70
2009,07,22,00,35,13.70
2009,07,22,00,36,13.70
2009,07,22,00,37,13.60
2009,07,22,00,38,13.60
2009,07,22,00,39,13.50
2009,07,22,00,40,13.50
2009,07,22,00,41,13.40
2009,07,22,00,42,13.30
2009,07,22,00,43,13.30
2009,07,22,00,44,13.30
2009,07,22,00,45,13.20
2009,07,22,00,46,13.20
2009,07,22,00,47,13.10
2009,07,22,00,48,13.10
2009,07,22,00,49,13.10
2009,07,22,00,50,13.00
2009,07,22,00,51,13.00
2009,07,22,00,52,13.00
2009,07,22,00,53,12.90
2009,07,22,00,54,12.90
2009,07,22,00,55,12.90
2009,07,22,00,56,12.90
2009,07,22,00,57,12.90
2009,07,22,00,58,12.80
2009,07,22,00,59,12.80
2009,07,22,01,00,12.80
2009,07,22,01,01,12.80
2009,07,22,01,02,12.80
2009,07,22,01,03,12.80
2009,07,22,01,04,12.80
2009,07,22,01,05,12.80
2009,07,22,01,06,12.70
2009,07,22,01,07,12.70
2009,07,22,01,08,12.70
2009,07,22,01,09,12.70
2009,07,22,01,10,12.70
2009,07,22,01,11,12.70
2009,07,22,01,12,12.70
2009,07,22,01,13,12.70
2009,07,22,01,14,12.60
2009,07,22,01,15,12.60
2009,07,22,01,16,12.60
2009,07,22,01,17,12.60
2009,07,22,01,18,12.60
2009,07,22,01,19,12.60
2009,07,22,01,20,12.60
2009,07,22,01,21,12.50
2009,07,22,01,22,12.50
2009,07,22,01,23,12.50
2009,07,22,01,24,12.40
2009,07,22,01,25,12.40
2009,07,22,01,26,12.40
2009,07,22,01,27,12.40
2009,07,22,01,28,12.30
2009,07,22,01,29,12.30
2009,07,22,01,30,12.30
2009,07,22,01,31,12.30
2009,07,22,01,32,12.30
2009,07,22,01,33,12.30
2009,07,22,01,34,12.20
2009,07,22,01,35,12.20
2009,07,22,01,36,12.20
2009,07,22,01,37,12.20
2009,07,22,01,38,12.20
2009,07,22,01,39,12.10
2009,07,22,01,40,12.10
2009,07,22,01,41,12.10
2009,07,22,01,42,12.10
2009,07,22,01,43,12.10
2009,07,22,01,44,12.10
2009,07,22,01,45,12.10
2009,07,22,01,46,12.10
2009,07,22,01,47,12.10
2009,07,22,01,48,12.00
2009,07,22,01,49,12.00
2009,07,22,01,50,12.00
2009,07,22,01,51,12.00
2009,07,22,01,52,12.00
2009,07,22,01,53,11.90
2009,07,22,01,54,11.90
2009,07,22,01,55,11.90
2009,07,22,01,56,11.90
2009,07,22,01,57,11.90
2009,07,22,01,58,11.90
2009,07,22,01,59,11.90
2009,07,22,02,00,11.90
2009,07,22,02,01,11.90
2009,07,22,02,02,11.90
2009,07,22,02,03,11.90
2009,07,22,02,04,11.90
2009,07,22,02,05,11.90
2009,07,22,02,06,11.90
2009,07,22,02,07,11.90
2009,07,22,02,08,11.90
2009,07,22,02,09,11.90
2009,07,22,02,10,11.90
2009,07,22,02,11,11.90
2009,07,22,02,12,11.90
2009,07,22,02,13,11.90
2009,07,22,02,14,11.90
2009,07,22,02,15,11.90
2009,07,22,02,16,11.90
2009,07,22,02,17,11.90
2009,07,22,02,18,11.90
2009,07,22,02,19,11.90
2009,07,22,02,20,11.90
2009,07,22,02,21,11.90
2009,07,22,02,22,11.90
2009,07,22,02,23,11.90
2009,07,22,02,24,11.90
2009,07,22,02,25,11.90
2009,07,22,02,26,11.90
2009,07,22,02,27,12.00
2009,07,22,02,28,12.00
2009,07,22,02,29,12.00
2009,07,22,02,30,12.00
2009,07,22,02,31,12.00
2009,07,22,02,32,12.00
2009,07,22,02,33,12.00
2009,07,22,02,34,12.00
2009,07,22,02,35,12.00
2009,07,22,02,36,12.00
2009,07,22,02,37,12.00
2009,07,22,02,38,12.10
2009,07,22,02,39,12.10
2009,07,22,02,40,12.10
2009,07,22,02,41,12.10
2009,07,22,02,42,12.10
2009,07,22,02,43,12.10
2009,07,22,02,44,12.10
2009,07,22,02,45,12.10
2009,07,22,02,46,12.10
2009,07,22,02,47,12.10
2009,07,22,02,48,12.10
2009,07,22,02,49,12.10
2009,07,22,02,50,12.10
2009,07,22,02,51,12.10
2009,07,22,02,52,12.10
2009,07,22,02,53,12.10
2009,07,22,02,54,12.10
2009,07,22,02,55,12.20
2009,07,22,02,56,12.20
2009,07,22,02,57,12.20
2009,07,22,02,58,12.20
2009,07,22,02,59,12.20
2009,07,22,03,00,12.20
2009,07,22,03,01,12.30
2009,07,22,03,02,12.30
2009,07,22,03,03,12.30
2009,07,22,03,04,12.30
2009,07,22,03,05,12.30
2009,07,22,03,06,12.40
2009,07,22,03,07,12.40
2009,07,22,03,08,12.40
2009,07,22,03,09,12.40
2009,07,22,03,10,12.40
2009,07,22,03,11,12.40
2009,07,22,03,12,12.40
2009,07,22,03,13,12.50
2009,07,22,03,14,12.50
2009,07,22,03,15,12.50
2009,07,22,03,16,12.50
2009,07,22,03,17,12.50
2009,07,22,03,18,12.50
2009,07,22,03,19,12.50
2009,07,22,03,20,12.50
2009,07,22,03,21,12.40
2009,07,22,03,22,12.40
2009,07,22,03,23,12.40
2009,07,22,03,24,12.40
2009,07,22,03,25,12.40
2009,07,22,03,26,12.40
2009,07,22,03,27,12.40
2009,07,22,03,28,12.40
2009,07,22,03,29,12.40
2009,07,22,03,30,12.40
2009,07,22,03,31,12.30
2009,07,22,03,32,12.30
2009,07,22,03,33,12.30
2009,07,22,03,34,12.30
2009,07,22,03,35,12.30
2009,07,22,03,36,12.30
2009,07,22,03,37,12.30
2009,07,22,03,38,12.20
2009,07,22,03,39,12.20
2009,07,22,03,40,12.20
2009,07,22,03,41,12.20
2009,07,22,03,42,12.20
2009,07,22,03,43,12.20
2009,07,22,03,44,12.10
2009,07,22,03,45,12.10
2009,07,22,03,46,12.10
2009,07,22,03,47,12.10
2009,07,22,03,48,12.10
2009,07,22,03,49,12.10
2009,07,22,03,50,12.10
2009,07,22,03,51,12.00
2009,07,22,03,52,12.00
2009,07,22,03,53,12.00
2009,07,22,03,54,12.00
2009,07,22,03,55,12.00
2009,07,22,03,56,12.00
2009,07,22,03,57,11.90
2009,07,22,03,58,11.90
2009,07,22,03,59,11.90
2009,07,22,04,00,11.90
2009,07,22,04,01,11.90
2009,07,22,04,02,11.90
2009,07,22,04,03,11.90
2009,07,22,04,04,11.90
2009,07,22,04,08,11.90
2009,07,22,04,09,11.90
2009,07,22,04,10,11.90
2009,07,22,04,11,11.90
2009,07,22,04,12,11.90
2009,07,22,04,13,11.90
2009,07,22,04,14,11.90
2009,07,22,04,15,11.90
2009,07,22,04,16,11.90
2009,07,22,04,17,11.90
2009,07,22,04,18,11.90
2009,07,22,04,19,11.80
2009,07,22,04,20,11.90
2009,07,22,04,21,11.90
2009,07,22,04,22,11.90
2009,07,22,04,23,11.90
2009,07,22,04,24,11.90
2009,07,22,04,25,11.90
2009,07,22,04,26,11.90
2009,07,22,04,27,11.90
2009,07,22,04,28,11.90
2009,07,22,04,29,11.90
2009,07,22,04,30,11.90
2009,07,22,04,31,11.90
2009,07,22,04,32,11.90
2009,07,22,04,33,11.90
2009,07,22,04,34,11.90
2009,07,22,04,35,11.90
2009,07,22,04,36,11.90
2009,07,22,04,37,11.90
2009,07,22,04,38,11.90
2009,07,22,04,39,11.90
2009,07,22,04,40,11.90
2009,07,22,04,41,11.90
2009,07,22,04,42,11.90
2009,07,22,04,43,11.90
2009,07,22,04,44,11.90
2009,07,22,04,45,11.90
2009,07,22,04,46,12.00
2009,07,22,04,47,12.00
2009,07,22,04,48,12.00
2009,07,22,04,49,12.00
2009,07,22,04,50,12.00
2009,07,22,04,51,12.00
2009,07,22,04,52,12.00
2009,07,22,04,53,12.00
2009,07,22,04,54,12.10
2009,07,22,04,55,12.10
2009,07,22,04,56,12.10
2009,07,22,04,57,12.10
2009,07,22,04,58,12.10
2009,07,22,04,59,12.10
2009,07,22,05,00,12.10
2009,07,22,05,01,12.10
2009,07,22,05,02,12.20
2009,07,22,05,03,12.20
2009,07,22,05,04,12.20
2009,07,22,05,05,12.20
2009,07,22,05,06,12.20
2009,07,22,05,07,12.10
2009,07,22,05,08,12.10
2009,07,22,05,09,12.10
2009,07,22,05,10,12.10
2009,07,22,05,11,12.10
2009,07,22,05,12,12.10
2009,07,22,05,13,12.10
2009,07,22,05,14,12.10
2009,07,22,05,15,12.00
2009,07,22,05,16,12.00
2009,07,22,05,17,12.00
2009,07,22,05,18,12.00
2009,07,22,05,19,12.00
2009,07,22,05,20,11.90
2009,07,22,05,21,11.90
2009,07,22,05,22,11.90
2009,07,22,05,23,11.90
2009,07,22,05,24,11.90
2009,07,22,05,25,11.90
2009,07,22,05,26,11.90
2009,07,22,05,27,11.90
2009,07,22,05,28,11.80
2009,07,22,05,29,11.80
2009,07,22,05,30,11.80
2009,07,22,05,31,11.80
2009,07,22,05,32,11.80
2009,07,22,05,33,11.80
2009,07,22,05,34,11.70
2009,07,22,05,35,11.70
2009,07,22,05,36,11.70
2009,07,22,05,37,11.70
2009,07,22,05,38,11.70
2009,07,22,05,39,11.70
2009,07,22,05,40,11.70
2009,07,22,05,41,11.70
2009,07,22,05,42,11.70
2009,07,22,05,43,11.70
2009,07,22,05,44,11.70
2009,07,22,05,45,11.70
2009,07,22,05,46,11.70
2009,07,22,05,47,11.60
2009,07,22,05,48,11.60
2009,07,22,05,49,11.60
2009,07,22,05,50,11.60
2009,07,22,05,51,11.60
2009,07,22,05,52,11.60
2009,07,22,05,53,11.60
2009,07,22,05,54,11.60
2009,07,22,05,55,11.60
2009,07,22,05,56,11.60
2009,07,22,05,57,11.60
2009,07,22,05,58,11.60
2009,07,22,05,59,11.60
2009,07,22,06,00,11.60
2009,07,22,06,01,11.60
2009,07,22,06,02,11.60
2009,07,22,06,03,11.60
2009,07,22,06,04,11.60
2009,07,22,06,05,11.60
2009,07,22,06,06,11.60
2009,07,22,06,07,11.60
2009,07,22,06,08,11.60
2009,07,22,06,09,11.70
2009,07,22,06,10,11.70
2009,07,22,06,11,11.70
2009,07,22,06,12,11.70
2009,07,22,06,13,11.70
2009,07,22,06,14,11.70
2009,07,22,06,15,11.70
2009,07,22,06,16,11.70
2009,07,22,06,17,11.80
2009,07,22,06,18,11.80
2009,07,22,06,19,11.80
2009,07,22,06,20,11.80
2009,07,22,06,21,11.80
2009,07,22,06,22,11.90
2009,07,22,06,23,11.90
2009,07,22,06,24,11.90
2009,07,22,06,25,11.90
2009,07,22,06,26,12.00
2009,07,22,06,27,12.00
2009,07,22,06,28,12.10
2009,07,22,06,29,12.10
2009,07,22,06,30,12.20
2009,07,22,06,31,12.20
2009,07,22,06,32,12.30
2009,07,22,06,33,12.30
2009,07,22,06,34,12.30
2009,07,22,06,35,12.40
2009,07,22,06,36,12.40
2009,07,22,06,37,12.40
2009,07,22,06,38,12.40
2009,07,22,06,39,12.50
2009,07,22,06,40,12.60
2009,07,22,06,41,12.60
2009,07,22,06,42,12.60
2009,07,22,06,43,12.70
2009,07,22,06,44,12.70
2009,07,22,06,45,12.80
2009,07,22,06,46,12.80
2009,07,22,06,47,12.80
2009,07,22,06,48,12.80
2009,07,22,06,49,12.80
2009,07,22,06,50,12.80
2009,07,22,06,51,13.10
2009,07,22,06,52,13.40
2009,07,22,06,53,13.50
2009,07,22,06,54,13.60
2009,07,22,06,55,13.70
2009,07,22,06,56,13.80
2009,07,22,06,57,13.90
2009,07,22,06,58,13.90
2009,07,22,06,59,14.00
2009,07,22,07,00,14.10
2009,07,22,07,01,14.10
2009,07,22,07,02,14.20
2009,07,22,07,03,14.30
2009,07,22,07,04,14.30
2009,07,22,07,05,14.30
2009,07,22,07,06,14.30
2009,07,22,07,07,14.40
2009,07,22,07,08,14.40
2009,07,22,07,09,14.40
2009,07,22,07,10,14.40
2009,07,22,07,11,14.40
2009,07,22,07,12,14.40
2009,07,22,07,13,14.40
2009,07,22,07,14,14.30
2009,07,22,07,15,14.30
2009,07,22,07,16,14.30
2009,07,22,07,17,14.30
2009,07,22,07,18,14.20
2009,07,22,07,19,14.20
2009,07,22,07,20,14.20
2009,07,22,07,21,14.10
2009,07,22,07,22,14.10
2009,07,22,07,23,14.10
2009,07,22,07,24,14.10
2009,07,22,07,25,14.10
2009,07,22,07,26,14.10
2009,07,22,07,27,14.20
2009,07,22,07,28,14.20
2009,07,22,07,29,14.30
2009,07,22,07,30,14.30
2009,07,22,07,31,14.30
2009,07,22,07,32,14.40
2009,07,22,07,33,14.50
2009,07,22,07,34,14.50
2009,07,22,07,35,14.60
2009,07,22,07,36,14.70
2009,07,22,07,37,14.70
2009,07,22,07,38,14.80
2009,07,22,07,39,14.90
2009,07,22,07,40,14.90
2009,07,22,07,41,15.00
2009,07,22,07,42,15.00
2009,07,22,07,43,15.00
2009,07,22,07,44,15.00
2009,07,22,07,45,15.00
2009,07,22,07,46,15.00
2009,07,22,07,47,15.00
2009,07,22,07,48,15.00
2009,07,22,07,49,15.00
2009,07,22,07,50,15.00
2009,07,22,07,51,15.00
2009,07,22,07,52,15.00
2009,07,22,07,53,15.00
2009,07,22,07,54,15.00
2009,07,22,07,55,15.00
2009,07,22,07,56,15.10
2009,07,22,07,57,15.20
2009,07,22,07,58,15.20
2009,07,22,07,59,15.30
2009,07,22,08,00,15.30
2009,07,22,08,01,15.30
2009,07,22,08,02,15.40
2009,07,22,08,03,15.50
2009,07,22,08,04,15.50
2009,07,22,08,05,15.60
2009,07,22,08,06,15.60
2009,07,22,08,07,15.60
2009,07,22,08,08,15.70
2009,07,22,08,09,15.70
2009,07,22,08,10,15.80
2009,07,22,08,11,15.80
2009,07,22,08,12,15.80
2009,07,22,08,13,15.80
2009,07,22,08,14,15.80
2009,07,22,08,15,15.80
2009,07,22,08,16,15.80
2009,07,22,08,17,15.80
2009,07,22,08,18,15.80
2009,07,22,08,19,15.80
2009,07,22,08,20,15.80
2009,07,22,08,21,15.80
2009,07,22,08,22,15.80
2009,07,22,08,23,15.80
2009,07,22,08,24,15.80
2009,07,22,08,25,15.90
2009,07,22,08,26,16.00
2009,07,22,08,27,16.00
2009,07,22,08,28,16.10
2009,07,22,08,29,16.20
2009,07,22,08,30,16.30
2009,07,22,08,31,16.30
2009,07,22,08,32,16.30
2009,07,22,08,33,16.40
2009,07,22,08,34,16.50
2009,07,22,08,35,16.50
2009,07,22,08,36,16.60
2009,07,22,08,37,16.60
2009,07,22,08,38,16.60
2009,07,22,08,39,16.50
2009,07,22,08,40,16.50
2009,07,22,08,41,16.50
2009,07,22,08,42,16.60
2009,07,22,08,43,16.60
2009,07,22,08,44,16.60
2009,07,22,08,45,16.50
2009,07,22,08,46,16.50
2009,07,22,08,47,16.50
2009,07,22,08,48,16.50
2009,07,22,08,49,16.60
2009,07,22,08,50,16.60
2009,07,22,08,51,16.60
2009,07,22,08,52,16.50
2009,07,22,08,53,16.40
2009,07,22,08,54,16.30
2009,07,22,08,55,16.20
2009,07,22,08,56,16.20
2009,07,22,08,57,16.20
2009,07,22,08,58,16.20
2009,07,22,08,59,16.20
2009,07,22,09,00,16.30
2009,07,22,09,01,16.30
2009,07,22,09,02,16.30
2009,07,22,09,03,16.20
2009,07,22,09,04,16.20
2009,07,22,09,05,16.20
2009,07,22,09,06,16.20
2009,07,22,09,07,16.20
2009,07,22,09,08,16.20
2009,07,22,09,09,16.20
2009,07,22,09,10,16.10
2009,07,22,09,11,16.00
2009,07,22,09,12,15.90
2009,07,22,09,13,15.80
2009,07,22,09,14,15.80
2009,07,22,09,15,15.70
2009,07,22,09,16,15.70
2009,07,22,09,17,15.70
2009,07,22,09,18,15.60
2009,07,22,09,19,15.60
2009,07,22,09,20,15.60
2009,07,22,09,21,15.60
2009,07,22,09,22,15.60
2009,07,22,09,23,15.60
2009,07,22,09,24,15.60
2009,07,22,09,25,15.60
2009,07,22,09,26,15.60
2009,07,22,09,27,15.70
2009,07,22,09,28,15.80
2009,07,22,09,29,15.90
2009,07,22,09,30,16.00
2009,07,22,09,31,16.10
2009,07,22,09,32,16.20
2009,07,22,09,33,16.30
2009,07,22,09,34,16.40
2009,07,22,09,35,16.50
2009,07,22,09,36,16.60
2009,07,22,09,37,16.50
2009,07,22,09,38,16.40
2009,07,22,09,39,16.40
2009,07,22,09,40,16.40
2009,07,22,09,41,16.20
2009,07,22,09,42,16.20
2009,07,22,09,43,16.20
2009,07,22,09,44,16.20
2009,07,22,09,45,16.30
2009,07,22,09,46,16.20
2009,07,22,09,47,16.10
2009,07,22,09,48,15.90
2009,07,22,09,49,15.90
2009,07,22,09,50,15.80
2009,07,22,09,51,15.80
2009,07,22,09,52,15.60
2009,07,22,09,53,15.40
2009,07,22,09,54,15.20
2009,07,22,09,55,15.10
2009,07,22,09,56,15.00
2009,07,22,09,57,15.00
2009,07,22,09,58,15.00
2009,07,22,09,59,15.00
2009,07,22,10,00,15.10
2009,07,22,10,01,15.20
2009,07,22,10,02,15.30
2009,07,22,10,03,15.30
2009,07,22,10,04,15.30
2009,07,22,10,05,15.20
2009,07,22,10,06,15.10
2009,07,22,10,07,15.10
2009,07,22,10,08,15.00
2009,07,22,10,09,15.00
2009,07,22,10,10,14.80
2009,07,22,10,11,14.70
2009,07,22,10,12,14.60
2009,07,22,10,13,14.50
2009,07,22,10,14,14.40
2009,07,22,10,15,14.40
2009,07,22,10,16,14.40
2009,07,22,10,17,14.40
2009,07,22,10,18,14.30
2009,07,22,10,19,14.30
2009,07,22,10,20,14.20
2009,07,22,10,21,14.10
2009,07,22,10,22,13.90
2009,07,22,10,23,13.80
2009,07,22,10,24,13.70
2009,07,22,10,25,13.80
2009,07,22,10,26,13.80
2009,07,22,10,27,13.80
2009,07,22,10,28,13.80
2009,07,22,10,29,13.90
2009,07,22,10,30,13.90
2009,07,22,10,31,13.90
2009,07,22,10,32,13.80
2009,07,22,10,33,13.80
2009,07,22,10,34,13.80
2009,07,22,10,35,13.80
2009,07,22,10,36,13.80
2009,07,22,10,37,13.80
2009,07,22,10,38,13.90
2009,07,22,10,39,13.90
2009,07,22,10,40,13.90
2009,07,22,10,41,14.00
2009,07,22,10,42,14.10
2009,07,22,10,43,14.10
2009,07,22,10,44,14.20
2009,07,22,10,45,14.40
2009,07,22,10,46,14.60
2009,07,22,10,47,14.80
2009,07,22,10,48,14.90
2009,07,22,10,49,15.00
2009,07,22,10,50,15.10
2009,07,22,10,51,15.20
2009,07,22,10,52,15.30
2009,07,22,10,53,15.40
2009,07,22,10,54,15.40
2009,07,22,10,55,15.50
2009,07,22,10,56,15.60
2009,07,22,10,57,15.60
2009,07,22,10,58,15.70
2009,07,22,10,59,15.70
2009,07,22,11,00,15.80
2009,07,22,11,01,15.90
2009,07,22,11,02,15.90
2009,07,22,11,03,15.80
2009,07,22,11,04,15.80
2009,07,22,11,05,15.80
2009,07,22,11,06,15.70
2009,07,22,11,07,15.50
2009,07,22,11,08,15.40
2009,07,22,11,09,15.40
2009,07,22,11,10,15.30
2009,07,22,11,11,15.20
2009,07,22,11,12,15.20
2009,07,22,11,13,15.20
2009,07,22,11,14,15.30
2009,07,22,11,15,15.30
2009,07,22,11,16,15.20
2009,07,22,11,17,15.00
2009,07,22,11,18,15.00
2009,07,22,11,19,15.00
2009,07,22,11,20,15.20
2009,07,22,11,21,15.40
2009,07,22,11,22,15.60
2009,07,22,11,23,15.70
2009,07,22,11,24,15.80
2009,07,22,11,25,16.00
2009,07,22,11,26,16.00
2009,07,22,11,27,16.10
2009,07,22,11,28,16.10
2009,07,22,11,29,16.00
2009,07,22,11,30,15.90
2009,07,22,11,31,15.80
2009,07,22,11,32,15.90
2009,07,22,11,33,15.90
2009,07,22,11,34,16.00
2009,07,22,11,35,16.00
2009,07,22,11,36,16.00
2009,07,22,11,37,16.10
2009,07,22,11,38,16.10
2009,07,22,11,39,16.00
2009,07,22,11,40,16.00
2009,07,22,11,41,16.00
2009,07,22,11,42,15.90
2009,07,22,11,43,15.80
2009,07,22,11,44,15.70
2009,07,22,11,45,15.70
2009,07,22,11,46,15.60
2009,07,22,11,47,15.60
2009,07,22,11,48,15.60
2009,07,22,11,49,15.50
2009,07,22,11,50,15.50
2009,07,22,11,51,15.60
2009,07,22,11,52,15.70
2009,07,22,11,53,15.70
2009,07,22,11,54,15.70
2009,07,22,11,55,15.70
2009,07,22,11,56,15.70
2009,07,22,11,57,15.90
2009,07,22,11,58,16.10
2009,07,22,11,59,16.30
2009,07,22,12,00,16.50
2009,07,22,12,01,16.70
2009,07,22,12,02,16.90
2009,07,22,12,03,16.90
2009,07,22,12,04,17.00
2009,07,22,12,05,17.10
2009,07,22,12,06,17.00
2009,07,22,12,07,17.00
2009,07,22,12,08,17.00
2009,07,22,12,09,17.10
2009,07,22,12,10,17.20
2009,07,22,12,11,17.30
2009,07,22,12,12,17.30
2009,07,22,12,13,17.20
2009,07,22,12,14,17.20
2009,07,22,12,15,17.20
2009,07,22,12,16,17.20
2009,07,22,12,17,17.20
2009,07,22,12,18,17.20
2009,07,22,12,19,17.20
2009,07,22,12,20,17.30
2009,07,22,12,21,17.40
2009,07,22,12,22,17.40
2009,07,22,12,23,17.40
2009,07,22,12,24,17.30
2009,07,22,12,25,17.20
2009,07,22,12,26,17.20
2009,07,22,12,27,17.20
2009,07,22,12,28,17.20
2009,07,22,12,29,17.20
2009,07,22,12,30,17.20
2009,07,22,12,31,17.20
2009,07,22,12,32,17.30
2009,07,22,12,33,17.30
2009,07,22,12,34,17.30
2009,07,22,12,35,17.30
2009,07,22,12,36,17.40
2009,07,22,12,37,17.40
2009,07,22,12,38,17.30
2009,07,22,12,39,17.30
2009,07,22,12,40,17.40
2009,07,22,12,41,17.60
2009,07,22,12,42,17.70
2009,07,22,12,43,17.90
2009,07,22,12,44,18.00
2009,07,22,12,45,18.00
2009,07,22,12,46,18.10
2009,07,22,12,47,18.10
2009,07,22,12,48,18.10
2009,07,22,12,49,18.00
2009,07,22,12,50,17.90
2009,07,22,12,51,17.70
2009,07,22,12,52,17.60
2009,07,22,12,53,17.40
2009,07,22,12,54,17.30
2009,07,22,12,55,17.10
2009,07,22,12,56,17.00
2009,07,22,12,57,16.90
2009,07,22,12,58,16.70
2009,07,22,12,59,16.60
2009,07,22,13,00,16.50
2009,07,22,13,01,16.40
2009,07,22,13,02,16.40
2009,07,22,13,03,16.50
2009,07,22,13,04,16.50
2009,07,22,13,05,16.60
2009,07,22,13,06,16.60
2009,07,22,13,07,16.60
2009,07,22,13,08,16.60
2009,07,22,13,09,16.60
2009,07,22,13,10,16.50
2009,07,22,13,11,16.50
2009,07,22,13,12,16.40
2009,07,22,13,13,16.20
2009,07,22,13,14,16.20
2009,07,22,13,15,16.20
2009,07,22,13,16,16.10
2009,07,22,13,17,16.10
2009,07,22,13,18,16.10
2009,07,22,13,19,16.20
2009,07,22,13,20,16.20
2009,07,22,13,21,16.30
2009,07,22,13,22,16.40
2009,07,22,13,23,16.50
2009,07,22,13,24,16.60
2009,07,22,13,25,16.70
2009,07,22,13,26,16.70
2009,07,22,13,27,16.70
2009,07,22,13,28,16.70
2009,07,22,13,29,16.70
2009,07,22,13,30,16.70
2009,07,22,13,31,16.70
2009,07,22,13,32,16.70
2009,07,22,13,33,16.80
2009,07,22,13,34,16.80
2009,07,22,13,35,16.70
2009,07,22,13,36,16.60
2009,07,22,13,37,16.60
2009,07,22,13,38,16.60
2009,07,22,13,39,16.60
2009,07,22,13,40,16.60
2009,07,22,13,41,16.60
2009,07,22,13,42,16.60
2009,07,22,13,43,16.70
2009,07,22,13,44,16.70
2009,07,22,13,45,16.80
2009,07,22,13,46,16.80
2009,07,22,13,47,16.90
2009,07,22,13,48,17.00
2009,07,22,13,49,17.10
2009,07,22,13,50,17.20
2009,07,22,13,51,17.30
2009,07,22,13,52,17.30
2009,07,22,13,53,17.30
2009,07,22,13,54,17.30
2009,07,22,13,55,17.40
2009,07,22,13,56,17.50
2009,07,22,13,57,17.50
2009,07,22,13,58,17.60
2009,07,22,13,59,17.70
2009,07,22,14,00,17.70
2009,07,22,14,01,17.80
2009,07,22,14,02,17.80
2009,07,22,14,03,17.70
2009,07,22,14,04,17.70
2009,07,22,14,05,17.60
2009,07,22,14,06,17.60
2009,07,22,14,07,17.50
2009,07,22,14,08,17.60
2009,07,22,14,09,17.60
2009,07,22,14,10,17.70
2009,07,22,14,11,17.80
2009,07,22,14,12,17.80
2009,07,22,14,13,18.00
2009,07,22,14,14,18.20
2009,07,22,14,15,18.30
2009,07,22,14,16,18.50
2009,07,22,14,17,18.70
2009,07,22,14,18,18.80
2009,07,22,14,19,18.80
2009,07,22,14,20,18.80
2009,07,22,14,21,18.80
2009,07,22,14,22,18.70
2009,07,22,14,23,18.70
2009,07,22,14,24,18.70
2009,07,22,14,25,18.70
2009,07,22,14,26,18.60
2009,07,22,14,27,18.60
2009,07,22,14,28,18.60
2009,07,22,14,29,18.50
2009,07,22,14,30,18.50
2009,07,22,14,31,18.60
2009,07,22,14,32,18.70
2009,07,22,14,33,18.90
2009,07,22,14,34,19.00
2009,07,22,14,35,19.10
2009,07,22,14,36,19.30
2009,07,22,14,37,19.50
2009,07,22,14,38,19.70
2009,07,22,14,39,19.80
2009,07,22,14,40,19.90
2009,07,22,14,41,20.00
2009,07,22,14,42,20.10
2009,07,22,14,43,20.20
2009,07,22,14,44,20.30
2009,07,22,14,45,20.30
2009,07,22,14,46,20.40
2009,07,22,14,47,20.60
2009,07,22,14,48,20.70
2009,07,22,14,49,20.80
2009,07,22,14,50,21.00
2009,07,22,14,51,21.10
2009,07,22,14,52,21.20
2009,07,22,14,53,21.20
2009,07,22,14,54,21.20
2009,07,22,14,55,21.20
2009,07,22,14,56,21.20
2009,07,22,14,57,21.20
2009,07,22,14,58,21.10
2009,07,22,14,59,21.10
2009,07,22,15,00,21.10
2009,07,22,15,01,21.10
2009,07,22,15,02,21.10
2009,07,22,15,03,21.10
2009,07,22,15,04,21.20
2009,07,22,15,05,21.30
2009,07,22,15,06,21.30
2009,07,22,15,07,21.50
2009,07,22,15,08,21.70
2009,07,22,15,09,21.80
2009,07,22,15,10,21.80
2009,07,22,15,11,21.80
2009,07,22,15,12,21.80
2009,07,22,15,13,21.80
2009,07,22,15,14,21.80
2009,07,22,15,15,21.80
2009,07,22,15,16,21.80
2009,07,22,15,17,21.90
2009,07,22,15,18,22.00
2009,07,22,15,19,22.00
2009,07,22,15,20,22.10
2009,07,22,15,21,22.20
2009,07,22,15,22,22.20
2009,07,22,15,23,22.20
2009,07,22,15,24,22.30
2009,07,22,15,25,22.40
2009,07,22,15,26,22.40
2009,07,22,15,27,22.40
2009,07,22,15,28,22.40
2009,07,22,15,29,22.30
2009,07,22,15,30,22.20
2009,07,22,15,31,22.20
2009,07,22,15,32,22.20
2009,07,22,15,33,22.20
2009,07,22,15,34,22.20
2009,07,22,15,35,22.20
2009,07,22,15,36,22.20
2009,07,22,15,37,22.20
2009,07,22,15,38,22.30
2009,07,22,15,39,22.30
2009,07,22,15,40,22.40
2009,07,22,15,41,22.40
2009,07,22,15,42,22.40
2009,07,22,15,43,22.30
2009,07,22,15,44,22.20
2009,07,22,15,45,22.20
2009,07,22,15,46,22.10
2009,07,22,15,47,22.10
2009,07,22,15,48,22.00
2009,07,22,15,49,22.00
2009,07,22,15,50,21.90
2009,07,22,15,51,21.80
2009,07,22,15,52,21.80
2009,07,22,15,53,21.80
2009,07,22,15,54,21.70
2009,07,22,15,55,21.70
2009,07,22,15,56,21.70
2009,07,22,15,57,21.80
2009,07,22,15,58,21.80
2009,07,22,15,59,21.80
2009,07,22,16,00,21.90
2009,07,22,16,01,21.80
2009,07,22,16,02,21.80
2009,07,22,16,03,21.80
2009,07,22,16,04,21.90
2009,07,22,16,05,21.90
2009,07,22,16,06,21.90
2009,07,22,16,07,21.90
2009,07,22,16,08,21.90
2009,07,22,16,09,21.80
2009,07,22,16,10,21.80
2009,07,22,16,11,21.90
2009,07,22,16,12,22.00
2009,07,22,16,13,22.00
2009,07,22,16,14,22.10
2009,07,22,16,15,22.10
2009,07,22,16,16,22.10
2009,07,22,16,17,22.20
2009,07,22,16,18,22.20
2009,07,22,16,19,22.30
2009,07,22,16,20,22.20
2009,07,22,16,21,22.30
2009,07,22,16,22,22.40
2009,07,22,16,23,22.50
2009,07,22,16,24,22.50
2009,07,22,16,25,22.60
2009,07,22,16,26,22.60
2009,07,22,16,27,22.70
2009,07,22,16,28,22.70
2009,07,22,16,29,22.80
2009,07,22,16,30,22.80
2009,07,22,16,31,22.80
2009,07,22,16,32,22.80
2009,07,22,16,33,22.80
2009,07,22,16,34,22.90
2009,07,22,16,35,22.90
2009,07,22,16,36,22.90
2009,07,22,16,37,22.80
2009,07,22,16,38,22.80
2009,07,22,16,39,22.70
2009,07,22,16,40,22.70
2009,07,22,16,41,22.80
2009,07,22,16,42,22.80
2009,07,22,16,43,22.80
2009,07,22,16,44,22.80
2009,07,22,16,45,22.80
2009,07,22,16,46,22.80
2009,07,22,16,47,22.80
2009,07,22,16,48,22.90
2009,07,22,16,49,22.90
2009,07,22,16,50,22.90
2009,07,22,16,51,22.90
2009,07,22,16,52,22.90
2009,07,22,16,53,22.90
2009,07,22,16,54,23.00
2009,07,22,16,55,23.00
2009,07,22,16,56,23.00
2009,07,22,16,57,22.90
2009,07,22,16,58,22.80
2009,07,22,16,59,22.80
2009,07,22,17,00,22.80
2009,07,22,17,01,22.80
2009,07,22,17,02,22.80
2009,07,22,17,03,22.80
2009,07,22,17,04,22.70
2009,07,22,17,05,22.70
2009,07,22,17,06,22.60
2009,07,22,17,07,22.50
2009,07,22,17,08,22.40
2009,07,22,17,09,22.30
2009,07,22,17,10,22.20
2009,07,22,17,11,22.10
2009,07,22,17,12,22.10
2009,07,22,17,13,22.10
2009,07,22,17,14,22.10
2009,07,22,17,15,22.10
2009,07,22,17,16,22.10
2009,07,22,17,17,22.10
2009,07,22,17,18,22.10
2009,07,22,17,19,22.10
2009,07,22,17,20,22.10
2009,07,22,17,21,22.10
2009,07,22,17,22,22.00